Regional Weather Roundup
Issued by NWS

Home | Current Version | Previous Version | Graphics & Text | Print | Product List | Glossary On
Versions: 1 2 3 4 5 6 7 8 9 10 11 12 13 14 15 16 17 18 19 20 21 22 23 24 25 26 27 28 29 30 31 32 33 34 35 36 37 38 39 40 41 42 43 44 45 46 47 48 49 50
557
ASUS44 KLIX 280505
RWRLA
LOUISIANA WEATHER ROUNDUP
NATIONAL WEATHER SERVICE NEW ORLEANS LA
1100 PM CST TUE JAN 27 2015

NOTE: "FAIR" INDICATES FEW OR NO CLOUDS BELOW 12,000 FEET WITH NO
      SIGNIFICANT WEATHER AND/OR OBSTRUCTIONS TO VISIBILITY.
      SKY/WX - SKY CONDITION AND SIGNIFICANT WEATHER.
      TMP - AIR TEMPERATURE.    DP   - DEWPOINT TEMPERATURE.
      RH  - RELATIVE HUMIDITY.  PRES - PRESSURE.
      HX  - HEAT INDEX.         WCI  - WIND CHILL INDEX.

*  THESE STATIONS ARE NOT NWS OR FAA STATIONS AND ARE NOT UNDER
   NWS QUALITY CONTROL.

LAZ040-048-061>063-065-066-069-280600-
SOUTHEAST LOUISIANA

CITY           SKY/WX    TMP DP  RH WIND       PRES   REMARKS
N.O. AUDUBON     N/A     53  49  86 MISG        N/A
N.O. INTL ARPT CLEAR     56  40  55 N5        30.17R
N.O. LAKEFRONT CLEAR     57  46  66 N10       30.17R
N.O. DOWNTOWN* FAIR      61  36  39 N6        30.17R
SLIDELL        CLEAR     45  41  86 N3        30.16R
BATON ROUGE    CLEAR     47  39  74 N5        30.17R
BOOTHVILLE     CLEAR     54  52  93 W7        30.16R
BELLE CHASSE   CLEAR     45  40  82 CALM      30.16R
BOGALUSA*        N/A     42  36  79 N3        30.19R
GALLIANO*      CLEAR     55  51  86 MISG      30.17R
NEW ROADS*     FAIR      49  38  67 N3        30.18R
GONZALES*      FAIR      50  42  74 CALM      30.17R
HAMMOND*       CLEAR     46  37  71 N3        30.19R
HOUMA*         CLEAR     47  47  98 CALM      30.17R
PORT FOURCHON* CLEAR     57  52  82 NW5       30.20R

$$

LAZ041-044-053-054-280600-
SOUTHWEST LOUISIANA

CITY           SKY/WX    TMP DP  RH WIND       PRES   REMARKS
LAKE CHARLES   CLEAR     47  46  97 CALM      30.16R
LAFAYETTE      CLEAR     49  42  77 N3        30.17R
PATTERSON      CLEAR     48  46  93 CALM      30.17R
SALT POINT       N/A     50  47  89 CALM      30.16R
NEW IBERIA     CLEAR     49  44  83 S3        30.17R
CHENAULT AIRPK CLEAR     50  47  90 CALM      30.17R

$$

LAZ027-028-280600-
CENTRAL LOUISIANA

CITY           SKY/WX    TMP DP  RH WIND       PRES   REMARKS
FORT POLK      CLEAR     48  41  77 CALM      30.16R
ALEXANDRIA INT CLEAR     49  41  74 CALM      30.16R
ALEXANDRIA     CLEAR     44  39  82 CALM      30.17S

$$

LAZ001-002-280600-
NORTHWEST LOUISIANA

CITY           SKY/WX    TMP DP  RH WIND       PRES   REMARKS
SHREVEPORT     CLEAR     47  39  74 CALM      30.14S
BARKSDALE AFB  CLEAR     45  37  71 SE5       30.15R
DTN SHREVEPORT CLEAR     47  36  65 CALM      30.15R

$$

LAZ014-016-280600-
NORTHEAST LOUISIANA

CITY           SKY/WX    TMP DP  RH WIND       PRES   REMARKS
MONROE         CLEAR     48  40  73 E6        30.19R
TALLULAH       CLEAR     44  37  76 E3        30.20R

$$




USA.gov is the U.S. government's official web portal to all federal, state and local government web resources and services.